ONEWEB-0304 (49092 NORAD) Tracking and Keplerian Element Data

This shows tracking and keplerian element data for the satellite.

Feedback or suggestion? Click here.




ElementValue
Catalog49092
NameONEWEB-0304
Epoch Orbit559
Epoch Day262.16668981
Epoch Year2021
RAAN356.4569
Inclination87.4154
Eccentricity0.0020206
Argument of Perigee198.577
Mean Anonmoly204.4778
Mean Motion15.13004132
Decay Rate-0.00922324
L11 49092U 21075T 21262.16668981 -.00922324 00000-0 -56166-1 0 9996
L22 49092 87.4154 356.4569 0020206 198.5770 204.4778 15.13004132 5591

Live tracking and technical data element details for ONEWEB-0304 (NORAD 49092). ONEWEB-0304 can be tracked NOW for your location showing map with azimuth and elevation plus other details from your city location.

Track the satellite on the map from your city or location and see movement details for azimuth, elevation, latitude, longitude, range, height, and movement on the map or in text.







IsCatalogInMostPopularTable: catalog: 49092, numindb: 5
Update: records affected: 1



GetName: 49092 ONEWEB-0304

Hit Count: updated at: Fri, 24 Sep 2021 18:51:46 GMT